Total_Precipitation_Accumulation
0.30 0.29 0.29 0.30 0.26 0.25 0.26 0.29 0.28 0.29 0.35 0.38 0.41 0.46 0.51 0.49 0.37 0.26 0.20 0.19 0.16 0.17 0.27 0.25 0.35 0.31 0.29 0.29 0.27 0.27 0.26 0.28 0.31 0.22 0.16 0.08 0.03 0.02 0.01 0.02 0.06 0.17 0.32
0.51 0.42 0.43 0.42 0.34 0.37 0.44 0.52 0.56 0.66 0.66 0.73 0.84 0.88 0.94 0.85 0.71 0.55 0.41 0.32 0.29 0.27 0.28 0.37 0.43 0.42 0.42 0.39 0.35 0.31 0.29 0.29 0.38 0.34 0.27 0.23 0.20 0.13 0.01 0.00 0.02 0.11 0.27
0.43 0.41 0.45 0.55 0.56 0.62 0.65 0.75 0.93 1.02 1.01 1.07 1.14 1.14 1.27 1.27 1.07 0.86 0.66 0.51 0.44 0.40 0.40 0.42 0.52 0.51 0.49 0.48 0.47 0.39 0.36 0.34 0.38 0.44 0.45 0.42 0.38 0.25 0.07 0.04 0.03 0.06 0.13
0.30 0.38 0.49 0.70 0.85 0.84 0.85 0.98 1.12 1.20 1.24 1.27 1.23 1.21 1.24 1.19 1.05 0.86 0.64 0.52 0.49 0.50 0.50 0.49 0.54 0.60 0.60 0.59 0.53 0.52 0.50 0.43 0.38 0.50 0.58 0.51 0.42 0.31 0.19 0.14 0.09 0.09 0.10
0.33 0.49 0.60 0.75 0.82 0.83 0.95 1.17 1.31 1.37 1.37 1.28 1.13 1.13 1.09 1.09 1.04 0.87 0.71 0.63 0.59 0.53 0.49 0.55 0.67 0.74 0.77 0.71 0.60 0.60 0.62 0.54 0.47 0.48 0.48 0.43 0.39 0.33 0.27 0.24 0.27 0.17 0.08
0.46 0.59 0.70 0.79 0.79 0.84 1.03 1.20 1.30 1.34 1.30 1.25 1.20 1.22 1.22 1.16 1.08 0.95 0.84 0.69 0.57 0.47 0.44 0.48 0.59 0.68 0.74 0.73 0.67 0.63 0.62 0.58 0.51 0.47 0.50 0.52 0.43 0.45 0.40 0.25 0.27 0.23 0.08
0.66 0.73 0.79 0.80 0.84 0.92 1.02 1.06 1.08 1.07 1.06 1.09 1.13 1.12 1.07 1.03 0.98 0.88 0.78 0.65 0.54 0.47 0.46 0.43 0.40 0.43 0.51 0.62 0.70 0.66 0.64 0.58 0.52 0.50 0.50 0.52 0.48 0.49 0.47 0.37 0.28 0.25 0.14
0.98 1.10 1.08 1.01 0.95 0.92 0.91 0.87 0.84 0.81 0.78 0.80 0.85 0.83 0.78 0.75 0.73 0.71 0.68 0.65 0.60 0.55 0.49 0.41 0.33 0.29 0.31 0.42 0.58 0.62 0.65 0.61 0.52 0.46 0.42 0.38 0.35 0.35 0.42 0.52 0.47 0.36 0.32
0.73 1.00 1.03 0.95 0.85 0.74 0.64 0.59 0.53 0.47 0.44 0.42 0.42 0.44 0.45 0.46 0.46 0.47 0.48 0.49 0.47 0.42 0.38 0.34 0.30 0.29 0.28 0.30 0.36 0.48 0.56 0.60 0.54 0.50 0.44 0.38 0.34 0.31 0.33 0.46 0.57 0.53 0.53
0.58 0.62 0.64 0.65 0.64 0.59 0.50 0.42 0.32 0.23 0.20 0.17 0.16 0.14 0.14 0.14 0.16 0.16 0.17 0.18 0.18 0.18 0.18 0.18 0.18 0.19 0.21 0.22 0.29 0.39 0.50 0.54 0.53 0.48 0.44 0.45 0.42 0.43 0.39 0.40 0.53 0.61 0.72
0.33 0.33 0.33 0.36 0.41 0.44 0.39 0.30 0.23 0.16 0.11 0.07 0.06 0.05 0.04 0.04 0.03 0.03 0.03 0.03 0.03 0.04 0.04 0.05 0.06 0.08 0.08 0.09 0.12 0.19 0.31 0.41 0.45 0.41 0.41 0.46 0.50 0.57 0.46 0.49 0.56 0.63 0.77
0.15 0.14 0.15 0.17 0.19 0.20 0.20 0.18 0.14 0.13 0.07 0.03 0.01 0.01 0.01 0.00 0.00 0.00 0.00 0.00 0.00 0.00 0.01 0.01 0.01 0.02 0.02 0.03 0.05 0.07 0.17 0.33 0.44 0.52 0.56 0.57 0.63 0.67 0.57 0.58 0.69 0.83 0.94
0.08 0.07 0.08 0.10 0.11 0.13 0.15 0.15 0.15 0.16 0.07 0.03 0.02 0.01 0.01 0.01 0.01 0.01 0.00 0.00 0.00 0.00 0.00 0.00 0.00 0.01 0.01 0.02 0.03 0.04 0.08 0.18 0.32 0.42 0.56 0.67 0.75 0.80 0.77 0.71 0.82 0.97 1.15
0.06 0.05 0.05 0.05 0.06 0.09 0.13 0.15 0.18 0.13 0.05 0.04 0.04 0.03 0.02 0.02 0.02 0.01 0.01 0.00 0.00 0.00 0.00 0.01 0.01 0.01 0.01 0.02 0.03 0.04 0.06 0.08 0.16 0.24 0.28 0.35 0.45 0.54 0.67 0.72 0.76 0.83 1.02
0.04 0.03 0.03 0.04 0.04 0.05 0.08 0.11 0.14 0.10 0.06 0.06 0.05 0.05 0.04 0.04 0.03 0.02 0.01 0.00 0.00 0.00 0.00 0.00 0.00 0.00 0.00 0.00 0.01 0.03 0.04 0.05 0.09 0.12 0.12 0.14 0.17 0.19 0.24 0.33 0.49 0.60 0.73
0.04 0.04 0.05 0.07 0.05 0.04 0.05 0.08 0.11 0.10 0.09 0.09 0.09 0.08 0.07 0.05 0.04 0.03 0.02 0.01 0.01 0.00 0.00 0.00 0.00 0.00 0.00 0.00 0.00 0.01 0.02 0.03 0.04 0.06 0.06 0.07 0.10 0.09 0.09 0.11 0.17 0.28 0.45
0.04 0.04 0.06 0.06 0.05 0.04 0.06 0.08 0.10 0.09 0.10 0.11 0.12 0.12 0.11 0.09 0.07 0.04 0.03 0.02 0.01 0.01 0.01 0.00 0.00 0.00 0.00 0.00 0.00 0.00 0.00 0.01 0.01 0.02 0.02 0.02 0.03 0.04 0.04 0.07 0.08 0.11 0.13
0.04 0.06 0.07 0.06 0.06 0.06 0.07 0.09 0.12 0.15 0.19 0.19 0.20 0.18 0.15 0.11 0.09 0.07 0.06 0.06 0.04 0.03 0.02 0.01 0.01 0.01 0.00 0.00 0.00 0.00 0.00 0.00 0.00 0.00 0.00 0.00 0.00 0.01 0.02 0.03 0.04 0.04 0.04
0.05 0.08 0.10 0.10 0.12 0.12 0.11 0.12 0.16 0.22 0.27 0.25 0.23 0.20 0.18 0.15 0.12 0.12 0.10 0.09 0.08 0.06 0.04 0.02 0.01 0.01 0.00 0.00 0.00 0.00 0.00 0.00 0.00 0.00 0.00 0.00 0.00 0.00 0.00 0.02 0.04 0.03 0.01
0.14 0.20 0.25 0.28 0.27 0.26 0.21 0.19 0.20 0.23 0.27 0.27 0.24 0.21 0.20 0.21 0.18 0.16 0.13 0.11 0.10 0.09 0.06 0.04 0.03 0.02 0.01 0.00 0.00 0.00 0.00 0.00 0.00 0.00 0.00 0.00 0.00 0.00 0.00 0.01 0.04 0.04 0.03
0.18 0.26 0.34 0.45 0.50 0.53 0.46 0.38 0.31 0.28 0.27 0.25 0.25 0.23 0.23 0.23 0.18 0.14 0.13 0.12 0.12 0.11 0.11 0.08 0.06 0.05 0.02 0.01 0.00 0.00 0.00 0.00 0.00 0.00 0.00 0.00 0.00 0.00 0.00 0.00 0.01 0.00 0.01
0.10 0.17 0.30 0.40 0.47 0.56 0.62 0.61 0.53 0.39 0.30 0.25 0.25 0.23 0.25 0.25 0.21 0.18 0.15 0.12 0.13 0.15 0.15 0.12 0.08 0.07 0.05 0.02 0.01 0.00 0.00 0.00 0.00 0.00 0.00 0.00 0.00 0.00 0.00 0.00 0.00 0.00 0.00
0.08 0.12 0.20 0.29 0.31 0.32 0.39 0.51 0.48 0.41 0.39 0.35 0.33 0.29 0.27 0.30 0.28 0.27 0.25 0.19 0.15 0.14 0.14 0.12 0.10 0.09 0.07 0.06 0.03 0.01 0.00 0.00 0.01 0.01 0.00 0.00 0.00 0.00 0.00 0.00 0.00 0.00 0.00
0.10 0.13 0.18 0.21 0.22 0.23 0.24 0.29 0.28 0.26 0.31 0.38 0.41 0.36 0.33 0.32 0.29 0.31 0.29 0.26 0.24 0.21 0.19 0.17 0.14 0.12 0.11 0.11 0.09 0.06 0.03 0.02 0.01 0.01 0.01 0.00 0.00 0.00 0.00 0.00 0.00 0.00 0.00
0.18 0.17 0.18 0.19 0.20 0.21 0.21 0.18 0.15 0.16 0.22 0.25 0.27 0.30 0.32 0.33 0.32 0.31 0.28 0.26 0.24 0.23 0.24 0.21 0.17 0.14 0.13 0.13 0.13 0.12 0.09 0.07 0.04 0.03 0.02 0.02 0.02 0.01 0.01 0.01 0.01 0.00 0.00
0.10 0.08 0.08 0.08 0.08 0.10 0.12 0.11 0.08 0.09 0.15 0.18 0.21 0.19 0.21 0.23 0.25 0.23 0.22 0.18 0.16 0.15 0.13 0.12 0.11 0.11 0.09 0.08 0.08 0.08 0.09 0.08 0.07 0.06 0.06 0.05 0.03 0.03 0.02 0.02 0.01 0.01 0.01